Weather History for Naples, Italy

Change the Weather History Date:

Thursday, September 20, 2012

  Actual Average Record
Temperature  
Mean Temperature 72 °F -  
Max Temperature 78 °F 74 °F 95 °F (2000)
Min Temperature 66 °F 55 °F 53 °F (1998)
Cooling Degree Days 7    
Growing Degree Days 22 (Base 50)    
Moisture  
Dew Point 59 °F    
Average Humidity 68    
Maximum Humidity 94    
Minimum Humidity 44    
Precipitation  
Precipitation 0.00 in 0.15 in - ()
Sea Level Pressure  
Sea Level Pressure 30.00 in    
Wind  
Wind Speed 4 mph ()    
Max Wind Speed 14 mph    
Max Gust Speed -    
Visibility 5.9 miles    
Events Rain , Thunderstorm    
Averages and records for this station are not official NWS values.
T = Trace of Precipitation, MM = Missing Value Source: Averaged Metar Reports

Daily Weather History Graph

Daily Weather History Graph

Search for Another Location

Airport:

Trip Planner

Search our weather history database for the weather conditions in past years. The results will help you decide how hot, cold, wet, or windy it might be!

Date:

Astronomy

Sep. 20, 2012 Rise Set
Actual Time 6:48 AM CEST 7:03 PM CEST
Civil Twilight 6:21 AM CEST 7:30 PM CEST
Nautical Twilight 5:48 AM CEST 8:02 PM CEST
Astronomical Twilight 5:16 AM CEST 8:35 PM CEST
Moon 11:49 AM CEST (9/20) 9:46 PM CEST (9/20)
Length of Visible Light 13h 09m
Length of Day
12h 14m
Waxing Crescent, 24% of the Moon is Illuminated
Sep 20
Waxing Crescent
Sep 22
First Quarter
Sep 30
Full
Oct 8
Last Quarter
Oct 15
New

Hourly Weather History & Observations

Time (CEST) Temp. Dew Point Humidity Pressure Visibility Wind Dir Wind Speed Gust Speed Precip Events Conditions
12:20 AM 69.8 °F 64.4 °F 83% 29.92 in 6.2 mi South 2.3 mph - N/A   Partly Cloudy
12:50 AM 69.8 °F 64.4 °F 83% 29.92 in 6.2 mi Variable 1.2 mph - N/A   Partly Cloudy
1:20 AM 69.8 °F 64.4 °F 83% 29.92 in 6.2 mi Variable 1.2 mph - N/A   Partly Cloudy
1:50 AM 69.8 °F 64.4 °F 83% 29.92 in 6.2 mi Variable 1.2 mph - N/A Thunderstorm Scattered Clouds
2:20 AM 68.0 °F 62.6 °F 83% 29.92 in 6.2 mi NNE 4.6 mph - N/A Thunderstorm Scattered Clouds
2:50 AM 68.0 °F 64.4 °F 88% 29.92 in 5.0 mi NE 3.5 mph - N/A Rain , Thunderstorm Light Thunderstorms and Rain
3:20 AM 68.0 °F 64.4 °F 88% 29.89 in 3.1 mi Variable 1.2 mph - N/A Rain Light Rain
3:50 AM 68.0 °F 66.2 °F 94% 29.89 in 4.3 mi Variable 2.3 mph - N/A   Scattered Clouds
4:20 AM 68.0 °F 66.2 °F 94% 29.89 in 5.0 mi Variable 2.3 mph - N/A   Scattered Clouds
4:50 AM 68.0 °F 66.2 °F 94% 29.89 in 5.0 mi Calm Calm - N/A   Partly Cloudy
5:20 AM 68.0 °F 66.2 °F 94% 29.92 in 5.0 mi Variable 2.3 mph - N/A   Partly Cloudy
5:50 AM 66.2 °F 64.4 °F 94% 29.92 in 5.0 mi Variable 2.3 mph - N/A   Scattered Clouds
6:20 AM 66.2 °F 64.4 °F 94% 29.92 in 5.0 mi Variable 1.2 mph - N/A   Scattered Clouds
6:50 AM 66.2 °F 64.4 °F 94% 29.92 in 5.0 mi WSW 2.3 mph - N/A   Partly Cloudy
7:20 AM 66.2 °F 64.4 °F 94% 29.92 in 6.2 mi West 3.5 mph - N/A   Partly Cloudy
7:50 AM 68.0 °F 66.2 °F 94% 29.95 in 6.2 mi Variable 2.3 mph - N/A   Partly Cloudy
8:20 AM 68.0 °F 66.2 °F 94% 29.95 in - NE 6.9 mph - N/A   Clear
8:50 AM 71.6 °F 66.2 °F 83% 29.98 in - ENE 3.5 mph - N/A   Clear
9:20 AM 73.4 °F 66.2 °F 78% 29.98 in - NE 3.5 mph - N/A   Clear
9:50 AM 73.4 °F 64.4 °F 73% 29.98 in - Variable 1.2 mph - N/A   Clear
10:20 AM 73.4 °F 64.4 °F 73% 29.98 in 6.2 mi NNW 3.5 mph - N/A   Partly Cloudy
10:50 AM 75.2 °F 64.4 °F 69% 30.01 in 6.2 mi North 5.8 mph - N/A   Partly Cloudy
11:20 AM 75.2 °F 62.6 °F 65% 30.01 in 6.2 mi NE 6.9 mph - N/A   Partly Cloudy
11:50 AM 78.8 °F 64.4 °F 61% 30.01 in 6.2 mi Variable 2.3 mph - N/A   Scattered Clouds
12:20 PM 77.0 °F 60.8 °F 57% 30.01 in 6.2 mi NNE 4.6 mph - N/A   Scattered Clouds
12:50 PM 77.0 °F 60.8 °F 57% 30.01 in 6.2 mi North 5.8 mph - N/A   Partly Cloudy
1:20 PM 78.8 °F 60.8 °F 54% 30.01 in 6.2 mi NE 5.8 mph - N/A   Partly Cloudy
1:50 PM 78.8 °F 59.0 °F 51% 30.01 in 6.2 mi ENE 8.1 mph - N/A   Partly Cloudy
2:20 PM 78.8 °F 59.0 °F 51% 30.01 in 6.2 mi East 5.8 mph - N/A   Partly Cloudy
2:50 PM 77.0 °F 57.2 °F 50% 30.04 in 6.2 mi ENE 9.2 mph - N/A   Partly Cloudy
3:20 PM 78.8 °F 59.0 °F 51% 30.04 in 6.2 mi East 8.1 mph - N/A   Scattered Clouds
3:50 PM 78.8 °F 57.2 °F 47% 30.04 in 6.2 mi ENE 12.7 mph - N/A   Scattered Clouds
4:20 PM 78.8 °F 55.4 °F 44% 30.04 in 6.2 mi East 11.5 mph - N/A   Partly Cloudy
4:50 PM 77.0 °F 55.4 °F 47% 30.04 in 6.2 mi ENE 12.7 mph - N/A   Partly Cloudy
5:20 PM 75.2 °F 55.4 °F 50% 30.04 in 6.2 mi ENE 13.8 mph - N/A   Partly Cloudy
5:50 PM 73.4 °F 53.6 °F 50% 30.06 in 6.2 mi ENE 12.7 mph - N/A   Partly Cloudy
6:20 PM 73.4 °F 53.6 °F 50% 30.06 in 6.2 mi East 10.4 mph - N/A   Scattered Clouds
6:50 PM 71.6 °F 51.8 °F 50% 30.06 in 6.2 mi ENE 11.5 mph - N/A   Partly Cloudy
7:20 PM 69.8 °F 51.8 °F 53% 30.09 in 6.2 mi ENE 11.5 mph - N/A   Partly Cloudy
7:50 PM 69.8 °F 51.8 °F 53% 30.09 in - ENE 10.4 mph - N/A   Clear
8:20 PM 68.0 °F 50.0 °F 52% 30.09 in - ENE 11.5 mph - N/A   Clear
8:50 PM 68.0 °F 48.2 °F 49% 30.12 in - ENE 12.7 mph - N/A   Clear
9:20 PM 68.0 °F 48.2 °F 49% 30.12 in - ENE 9.2 mph - N/A   Clear
9:50 PM 68.0 °F 48.2 °F 49% 30.12 in - ENE 9.2 mph - N/A   Clear
10:20 PM 68.0 °F 48.2 °F 49% 30.12 in 6.2 mi ENE 9.2 mph - N/A   Scattered Clouds
10:50 PM 68.0 °F 48.2 °F 49% 30.15 in 6.2 mi ENE 9.2 mph - N/A   Scattered Clouds
11:20 PM 66.2 °F 46.4 °F 49% 30.15 in 6.2 mi ENE 9.2 mph - N/A   Scattered Clouds
11:50 PM 66.2 °F 46.4 °F 49% 30.15 in 6.2 mi ENE 9.2 mph - N/A   Scattered Clouds